Location: Hurecourt
(47.9030°N, 6.0653°E)
Time: 08:22:32
(UTC+00:00)

Envisat - Visible Passes

Search period start: 30 September 2020 00:00
Search period end: 10 October 2020 00:00
Orbit: 764 x 766 km, 98.1° (Epoch: 29 September)

Date Brightness Start Highest point End Pass type
(mag) Time Alt. Az. Time Alt. Az. Time Alt. Az.
30 Sep 6.5 18:24:15 10° WSW 18:26:22 12° W 18:28:30 10° WNW visible
01 Oct 5.6 04:47:22 10° NE 04:51:35 25° E 04:55:45 10° SSE visible
01 Oct 5.6 17:44:54 10° SSW 17:49:07 26° W 17:53:21 10° NW visible
02 Oct 6.5 04:12:20 10° ENE 04:14:19 12° E 04:16:18 10° ESE visible
03 Oct 6.2 18:11:49 10° SW 18:14:51 16° W 18:17:53 10° NW visible
04 Oct 6.0 04:36:19 10° NE 04:40:06 21° E 04:43:51 10° SE visible
04 Oct 5.2 17:33:09 10° SSW 17:37:39 32° W 17:42:12 10° NNW visible
06 Oct 5.1 05:01:10 10° NNE 05:05:46 34° E 05:10:21 10° SSE visible
06 Oct 6.1 17:59:43 10° SW 18:03:20 19° W 18:06:59 10° NW visible
07 Oct 6.2 04:25:23 10° NE 04:28:36 17° E 04:31:48 10° SE visible
08 Oct 6.6 18:27:31 10° WSW 18:29:08 11° W 18:30:46 10° WNW visible
09 Oct 5.4 04:50:00 10° NE 04:54:19 27° E 04:58:37 10° SSE visible
09 Oct 5.7 17:47:47 10° SW 17:51:51 24° W 17:55:57 10° NW visible
